GFSFLT2_925_temp_303.txt.gz
Temp
21 22 20 20 20 19 19 18 18 18 18 18 18 18 19 20 20 20 20 20 20 20 19 20 21 22 22 22 21 21 19 20
22 21 21 22 21 20 20 20 19 19 19 18 18 19 19 19 20 18 19 20 19 19 19 19 19 19 19 20 22 21 21 20
20 20 21 21 22 21 21 20 20 19 18 18 19 19 20 19 18 18 17 18 18 18 18 18 18 18 19 19 18 18 20 20
20 19 19 21 21 21 20 20 19 19 18 17 18 17 19 18 19 18 17 17 16 17 18 19 18 17 18 19 18 18 20 22
20 19 18 18 20 20 20 20 19 19 18 16 16 16 17 17 17 18 18 17 15 16 16 16 19 19 19 19 20 19 19 20
20 18 17 17 18 18 18 18 17 18 17 16 15 15 15 15 16 16 17 18 15 14 13 15 15 16 18 18 19 20 20 20
18 18 17 17 17 17 17 16 16 17 16 15 14 13 13 13 13 15 15 16 16 15 15 14 13 15 15 16 19 19 19 20
18 17 16 15 15 15 16 16 16 16 15 14 13 11 11 11 12 13 14 14 13 13 15 15 15 13 13 14 14 17 18 19
17 17 15 14 15 15 16 15 15 15 14 14 12 11 10 9 10 10 10 8 10 12 14 14 15 15 14 12 12 13 15 17
16 15 14 13 14 14 14 14 14 14 14 13 11 10 9 9 8 7 6 6 8 10 10 11 11 12 13 13 13 12 13 14
15 14 13 12 12 13 13 12 12 12 12 10 9 8 7 5 5 4 4 5 5 5 5 5 7 8 10 10 12 13 12 12
14 13 11 10 11 11 11 11 11 11 10 8 7 6 5 4 4 3 3 3 2 3 3 4 4 5 6 7 9 12 14 13
12 11 9 8 9 10 9 10 10 10 8 7 6 4 2 2 2 1 1 1 1 1 1 2 3 4 4 6 8 9 11 13
9 9 8 7 7 8 8 8 8 8 6 6 4 3 1 1 0 0 -0 -0 0 1 1 1 1 2 3 4 10 11 15 16
9 9 8 6 5 6 6 6 6 6 5 4 3 1 0 -0 -1 -1 -1 -1 -0 -0 -0 0 0 0 1 2 5 8 5 10
8 7 6 5 4 4 4 5 5 4 4 2 1 1 -0 -1 -1 -1 -1 -1 -1 -1 -1 -1 -1 -0 0 2 0 1 4 6
6 6 5 4 3 2 2 3 3 3 3 2 -0 -0 -1 -1 -1 -1 -1 -2 -2 -2 -1 -1 -1 -1 -1 -1 -0 1 2 3
6 5 4 4 4 3 2 2 3 4 3 2 -1 -1 -1 -1 -1 -2 -1 -2 -2 -2 -2 -2 -2 -2 -2 -1 -1 -1 0 1
5 4 4 3 3 2 2 2 3 3 3 2 -1 -2 -2 -2 -3 -1 -2 -2 -2 -2 -2 -3 -3 -3 -2 -2 -2 -2 -2 -1
4 4 4 3 2 1 1 2 2 2 2 1 -0 -3 -3 -3 -3 -3 -2 -2 -3 -3 -3 -3 -3 -3 -3 -2 -2 -2 -2 -2

GFSFLT2_925_temp_306.txt.gz
Temp
21 21 21 21 21 20 20 19 19 19 18 18 19 19 19 19 18 18 18 18 18 18 18 19 19 18 19 18 18 19 20 21
20 20 20 21 21 21 20 20 19 19 18 18 18 18 18 18 19 18 18 18 17 17 17 17 18 18 18 19 18 18 19 19
18 18 19 20 20 20 20 19 19 18 17 17 16 16 16 17 17 18 17 17 18 17 16 16 16 17 17 18 19 17 18 19
18 17 17 18 19 18 18 18 17 18 17 15 15 14 14 14 15 15 16 17 17 17 16 16 15 15 15 17 18 18 18 18
19 17 16 16 17 17 17 17 16 17 16 15 13 13 13 12 12 12 14 15 15 15 15 15 15 15 15 15 15 17 18 18
18 16 15 15 15 15 16 16 15 16 15 14 12 13 11 11 11 11 12 13 10 11 12 13 15 15 14 14 14 14 15 17
17 16 14 14 15 15 15 14 15 15 14 14 11 11 10 10 9 10 10 8 7 8 10 11 13 14 15 14 14 13 13 14
16 15 13 13 14 14 14 14 14 14 14 11 10 9 9 8 8 8 7 5 6 7 8 8 8 9 10 12 13 13 13 13
15 15 12 12 12 13 13 13 12 13 12 10 8 8 6 5 5 6 4 4 5 4 5 5 6 6 7 8 10 11 12 12
14 12 10 10 11 11 12 11 11 12 10 8 7 5 4 3 4 3 3 3 2 3 3 3 4 5 5 6 8 8 9 11
12 10 9 9 10 10 10 10 11 10 9 7 5 4 2 2 2 1 1 1 1 2 1 2 2 4 4 5 6 6 8 10
10 10 8 8 8 9 8 9 9 8 7 6 4 2 1 1 0 0 0 0 0 1 1 1 1 2 2 3 4 5 7 9
10 9 8 6 6 7 7 7 7 7 6 4 3 2 1 0 -0 0 0 -0 -0 0 -0 0 0 1 1 2 3 5 8 8
9 8 7 5 4 5 5 6 6 5 4 3 2 1 -0 -0 -0 -0 -0 -1 -1 -1 -1 -1 -0 0 0 1 3 6 4 3
7 7 6 4 4 3 3 4 5 5 4 3 1 0 -0 -0 -1 -1 -1 -1 -1 -1 -1 -1 -1 -0 -0 -0 2 3 1 5
7 6 5 4 4 3 3 3 4 4 4 3 0 -0 -0 -1 -1 -1 -1 -1 -1 -2 -2 -2 -2 -1 -1 -0 -0 -0 1 2
5 5 5 4 4 3 3 3 3 4 3 3 1 -1 -1 -2 -2 -2 -2 -2 -2 -2 -2 -2 -2 -2 -2 -2 -1 -0 0 0
5 5 5 4 3 2 2 2 3 3 2 2 1 -2 -3 -3 -3 -3 -2 -2 -3 -3 -3 -3 -3 -3 -3 -3 -2 -1 -1 -1
4 5 4 3 2 2 2 2 3 2 2 1 1 -1 -2 -3 -3 -3 -3 -3 -4 -4 -3 -3 -3 -3 -3 -3 -3 -2 -2 -2
3 4 3 2 2 1 2 2 2 2 1 1 -0 -0 -1 -2 -3 -3 -3 -4 -4 -4 -4 -4 -4 -4 -4 -4 -3 -3 -3 -2

GFSFLT2_925_temp_309.txt.gz
Temp
19 19 19 19 19 19 19 18 17 17 17 17 17 15 16 16 16 14 15 16 16 16 17 16 16 17 17 17 18 18 18 18
18 18 18 18 18 18 17 18 17 16 16 15 16 15 15 15 15 15 15 15 15 15 15 16 15 15 15 16 16 17 18 18
17 17 16 16 17 16 16 16 16 15 14 14 14 14 14 13 12 11 12 13 12 13 13 13 13 14 15 15 14 16 16 17
15 15 15 15 15 15 15 15 15 15 14 12 12 12 11 11 10 10 10 10 11 10 10 11 12 12 13 14 15 14 14 16
14 14 14 14 14 14 14 14 14 14 11 10 10 10 9 9 8 8 8 6 7 8 8 8 9 10 11 11 12 13 13 14
13 13 13 12 13 13 13 13 13 12 10 9 8 7 6 7 6 6 5 4 4 5 5 5 7 7 9 10 10 11 11 11
12 12 12 11 11 12 12 11 12 10 9 8 7 5 4 4 4 4 4 3 3 3 3 4 3 5 5 7 8 9 10 10
11 11 10 10 10 11 11 11 11 9 7 5 5 4 3 3 3 3 2 1 1 2 2 2 2 3 4 4 6 7 7 9
10 9 9 9 9 9 9 9 9 7 6 5 4 3 2 1 1 1 0 0 1 1 1 1 1 2 2 3 4 5 6 6
9 8 8 7 8 8 8 8 7 6 4 3 3 2 1 0 -0 -0 0 0 0 0 1 0 0 1 1 2 2 2 4 6
8 7 7 6 6 6 6 7 6 5 4 3 2 1 0 0 -0 -0 -0 -0 -0 -0 -0 0 0 1 1 1 1 2 3 4
7 6 5 5 4 5 5 5 5 4 4 3 3 1 -0 0 -1 -1 -1 -1 -1 -1 -1 -1 -0 -0 0 1 1 2 3 3
6 5 4 4 3 3 3 4 4 4 3 2 1 0 -0 -1 -1 -2 -1 -1 -1 -2 -1 -1 -1 -1 -0 0 1 3 4 3
6 5 4 4 3 3 3 3 4 4 3 2 1 0 -1 -2 -2 -2 -2 -2 -2 -2 -2 -2 -2 -2 -1 -1 1 2 2 1
5 5 4 4 3 3 2 2 3 3 2 1 0 -0 -1 -2 -2 -3 -3 -3 -2 -3 -2 -3 -2 -2 -2 -1 -0 0 -0 2
5 5 4 3 2 2 2 2 2 2 2 1 0 -1 -1 -2 -3 -3 -3 -3 -4 -4 -3 -3 -3 -3 -3 -2 -2 -2 -1 0
5 4 3 2 2 2 2 2 2 2 1 1 0 -1 -2 -2 -2 -3 -3 -4 -4 -4 -4 -3 -3 -3 -3 -3 -3 -2 -1 -1
4 3 2 2 1 1 2 2 1 1 0 -0 -1 -1 -2 -2 -3 -3 -3 -4 -4 -5 -4 -4 -4 -3 -4 -3 -3 -3 -2 -2
3 3 2 2 1 2 2 1 1 0 -0 -1 -1 -2 -2 -2 -3 -4 -4 -4 -5 -5 -4 -4 -4 -4 -4 -4 -4 -4 -3 -3
3 2 2 2 2 2 2 1 1 0 -0 -1 -1 -1 -2 -2 -3 -4 -4 -4 -5 -5 -5 -4 -4 -4 -4 -4 -4 -4 -4 -3

GFSFLT2_925_temp_312.txt.gz
Temp
17 17 17 16 16 16 16 15 15 14 14 13 13 13 13 11 11 11 11 10 10 10 11 11 11 12 13 13 13 14 16 17
15 16 16 15 15 15 15 14 12 12 12 11 12 13 12 11 9 9 9 8 8 8 9 9 9 11 12 12 12 13 14 15
14 14 14 14 13 13 14 13 10 11 11 10 10 10 9 8 8 8 7 6 6 6 7 7 8 9 11 12 11 12 12 13
13 13 12 12 12 12 12 11 10 10 9 9 8 8 9 8 7 5 5 4 4 4 4 5 7 7 8 9 10 11 11 11
11 11 12 11 11 10 11 10 9 8 7 6 6 6 5 5 4 3 3 2 2 2 2 3 3 4 5 5 6 8 10 10
10 10 10 10 10 9 9 8 7 6 5 5 4 4 4 4 2 2 1 1 1 1 1 1 2 2 3 3 4 5 6 8
9 9 9 9 9 9 8 7 6 4 4 4 3 2 2 1 1 0 0 0 0 0 1 1 1 1 1 2 2 3 4 5
8 8 8 8 8 8 7 6 5 4 4 3 2 1 0 -0 -0 -0 -0 0 0 -0 -0 1 0 1 1 1 1 2 3 4
7 7 7 7 6 6 6 5 5 4 3 3 2 1 -0 -0 -0 -1 -1 -1 -1 -1 -1 -1 -0 0 1 1 1 1 3 3
7 7 6 6 5 5 5 4 4 4 3 2 1 0 -0 -1 -1 -1 -1 -1 -1 -2 -1 -1 -1 -1 -0 0 0 1 2 2
6 6 5 4 4 4 4 4 4 3 2 2 1 -0 -1 -1 -1 -1 -2 -2 -2 -2 -2 -2 -2 -1 -1 -1 0 0 2 2
5 5 4 3 3 3 3 4 4 3 2 1 0 -1 -2 -2 -2 -2 -3 -3 -2 -3 -3 -2 -2 -2 -2 -1 -1 1 2 2
5 4 4 3 2 2 2 2 3 2 1 0 -0 -1 -2 -3 -3 -3 -3 -3 -3 -3 -3 -3 -2 -3 -2 -2 -0 1 2 0
4 4 3 2 2 2 2 2 2 2 1 0 -1 -1 -2 -2 -3 -3 -3 -4 -4 -4 -4 -3 -3 -3 -3 -2 -1 1 0 0
4 3 2 2 2 2 2 2 2 1 0 -0 -1 -1 -2 -2 -3 -3 -3 -4 -5 -5 -5 -4 -3 -3 -3 -3 -2 -1 -2 1
3 3 2 2 1 2 1 1 1 0 -0 -1 -1 -2 -2 -3 -3 -3 -4 -4 -5 -5 -5 -4 -4 -4 -3 -3 -3 -3 -2 -1
3 2 2 2 2 1 1 1 0 -0 -1 -1 -2 -2 -2 -3 -3 -4 -4 -4 -5 -5 -5 -5 -4 -4 -4 -4 -3 -3 -3 -2
3 2 2 2 2 1 1 1 -0 -1 -1 -1 -2 -2 -2 -3 -3 -4 -4 -4 -6 -5 -5 -5 -5 -4 -4 -4 -4 -4 -3 -3
3 2 2 2 2 1 1 0 -0 -1 -1 -1 -2 -2 -3 -3 -3 -4 -4 -5 -6 -5 -5 -5 -5 -5 -4 -4 -4 -4 -4 -4
3 3 2 2 1 1 0 -0 -1 -1 -1 -2 -2 -2 -2 -3 -3 -4 -4 -5 -6 -5 -5 -5 -4 -5 -4 -5 -5 -5 -5 -4